This is the latest recevied weather packets stored in our database for station/object KO4ZGL-13. If no packets are shown the sender has not sent any weather packets the latest 10 day(s).
| Time | Temp. | Humidity | Pressure | Rain* | Wind** | Luminosity | Snow |
|---|---|---|---|---|---|---|---|
| 1788365894 | 34.44° C | 66% | 1019.1 hPa | 0 mm | - | 670 W/m² | - |
| 1788365590 | 35.56° C | 67% | 1019.1 hPa | 0 mm | - | 664 W/m² | - |
| 1788365285 | 35° C | 68% | 1019.1 hPa | 0 mm | - | 686 W/m² | - |
| 1788364981 | 34.44° C | 68% | 1019.2 hPa | 0 mm | - | 674 W/m² | - |
| 1788364678 | 33.33° C | 67% | 1019.2 hPa | 0 mm | - | 675 W/m² | - |
| 1788364377 | 33.89° C | 69% | 1019.4 hPa | 0 mm | - | 653 W/m² | - |
| 1788364072 | 34.44° C | 66% | 1019.4 hPa | 0 mm | - | 622 W/m² | - |
| 1788363769 | 33.89° C | 67% | 1019.3 hPa | 0 mm | - | 683 W/m² | - |
| 1788363467 | 33.33° C | 70% | 1019.4 hPa | 0 mm | - | 709 W/m² | - |
| 1788363167 | 33.33° C | 72% | 1019.5 hPa | 0 mm | - | 731 W/m² | - |
| 1788362858 | 33.33° C | 65% | 1019.4 hPa | 0 mm | - | 737 W/m² | - |
| 1788362553 | 33.33° C | 70% | 1019.3 hPa | 0 mm | - | 748 W/m² | - |
| 1788362248 | 32.78° C | 66% | 1019.4 hPa | 0 mm | - | 709 W/m² | - |
| 1788361949 | 32.22° C | 61% | 1019.3 hPa | 0 mm | - | 683 W/m² | - |
| 1788361643 | 32.22° C | 69% | 1019.3 hPa | 0 mm | - | 650 W/m² | - |
| 1788361339 | 32.22° C | 69% | 1019.5 hPa | 0 mm | - | 676 W/m² | - |
| 1788361038 | 32.22° C | 71% | 1019.3 hPa | 0 mm | - | 651 W/m² | - |
| 1788360733 | 31.67° C | 74% | 1019.6 hPa | 0 mm | - | 417 W/m² | - |
| 1788360429 | 31.67° C | 75% | 1019.5 hPa | 0 mm | - | 621 W/m² | - |
| 1788360125 | 32.22° C | 78% | 1019.4 hPa | 0 mm | - | 503 W/m² | - |
| 1788359820 | 31.67° C | 79% | 1019.5 hPa | 0 mm | - | 521 W/m² | - |
| 1788359515 | 30.56° C | 80% | 1019.2 hPa | 0 mm | - | 542 W/m² | - |
| 1788359211 | 31.11° C | 82% | 1019.6 hPa | 0 mm | - | 507 W/m² | - |
| 1788358908 | 30° C | 81% | 1019.6 hPa | 0 mm | - | 455 W/m² | - |
| 1788358606 | 29.44° C | 83% | 1019.4 hPa | 0 mm | - | 487 W/m² | - |
* Rain latest hour (hover to see other rain measurements)
** Current wind speed in m/s (hover to see current wind gust speed)